{"data":{"norad_id":60064,"intl_designator":"2024-113F","name":"STARLINK-11169 [DTC]","alt_names":[],"object_type":"PAYLOAD","status":"ACTIVE","operator":null,"country":"US","launch_date":"2024-06-19","launch_site_code":"AFWTR","launch_vehicle":null,"mission":null,"orbit_class":"UNKNOWN","rcs_meters":null,"size_class":null,"mass_kg":null,"dimensions":null,"purposes":["comms"],"wikipedia_slug":null,"has_3d_model":false,"image_url":null,"decayed_at":null,"tle_current":{"epoch":"2026-09-21T09:52:41.396736Z","epoch_age_seconds":99443,"freshness":"FRESH","line1":"1 60064U 24113F   26264.41159024 -.00001312  00000+0 -59757-5 0  9999","line2":"2 60064  53.1586 306.2199 0001039  79.9137 280.1998 15.69700751130300","mean_motion":15.69700751,"eccentricity":0.0001039,"inclination_deg":53.1586,"raan_deg":306.2199,"arg_perigee_deg":79.9137,"mean_anomaly_deg":280.1998,"bstar":-5.9757e-6,"rev_number":13030,"period_min":91.73723074813,"perigee_km":359.0531508538,"apogee_km":360.45328444102,"semimajor_km":6737.8902176474,"source":"CELESTRAK","updated_at":"2026-09-22T09:00:49.147210Z"}}}